Regional Weather Roundup
Issued by NWS

Home | Current Version | Previous Version | Graphics & Text | Print | Product List | Glossary Off
Versions: 1 2 3 4 5 6 7 8 9 10 11 12 13 14 15 16 17 18 19 20 21 22 23 24 25 26 27 28 29 30 31 32 33 34 35 36 37 38 39 40 41 42 43 44 45 46 47 48 49 50

000
ASUS43 KMPX 232010
RWRMN
WEATHER ROUNDUP FOR MINNESOTA
NATIONAL WEATHER SERVICE TWIN CITIES/CHANHASSEN MN
300 PM CDT TUE SEP 23 2014


NOTE: "FAIR" INDICATES FEW OR NO CLOUDS BELOW 12,000 FEET WITH NO
SIGNIFICANT WEATHER AND/OR OBSTRUCTIONS TO VISIBILITY. N/A MEANS
CURRENT SKY AND/OR WEATHER CONDITIONS ARE NOT AVAILABLE.

MNZ060>063-068>070-232100-
   Twin Cities Metro

CITY           SKY/WX    TMP DP  RH WIND       PRES   REMARKS
TWIN CITIES    PTSUNNY   71  49  45 S12G25    30.17F
ST PAUL        MOSUNNY   72  53  51 S13G18    30.18F
CRYSTAL        PTSUNNY   73  51  46 SE9       30.16F
BLAINE         PTSUNNY  N/A N/A N/A S12G18    30.17F
LAKEVILLE      PTSUNNY   73  52  46 S6        30.17F
EDEN PRAIRIE   PTSUNNY   73  53  49 S13       30.15F
SOUTH ST PAUL  PTSUNNY   74  50  42 S12G18    30.17F
LAKE ELMO      FAIR      72  52  49 S14       30.19F
$$
MNZ001>005-007-008-013>017-022>024-027-028-232100-
   Northwest Minnesota

CITY           SKY/WX    TMP DP  RH WIND       PRES   REMARKS
BEMIDJI        MOSUNNY   75  49  39 S17G24    30.09F HAZE
HALLOCK        SUNNY     79  55  44 S21G26    29.97F
ROSEAU         SUNNY     81  57  44 S18       30.01F
WARROAD        SUNNY     79  59  50 S13       30.02F
THIEF RVR FALL SUNNY     75  54  46 S15G26    30.02F
CROOKSTON      MOSUNNY   73  57  56 S12       30.02F
FOSSTON        MOSUNNY   72  48  43 S18       30.07S
DETROIT LAKES  MOSUNNY   72  52  49 S16       30.08F
MOORHEAD       MOSUNNY   73  48  40 S17G25    30.05S
PARK RAPIDS    PTSUNNY   74  50  42 SW17G28   30.10F
MAHNOMEN       FAIR      74  51  44 S15G29    30.06F
$$
MNZ006-009>011-018-025>026-232100-
   North Central Minnesota

CITY           SKY/WX    TMP DP  RH WIND       PRES   REMARKS
BAUDETTE       SUNNY     75  53  46 S16       30.05F
FLAG ISLAND    SUNNY     66  55  68 S13       30.02F
INTL FALLS     SUNNY     74  50  42 S10G21    30.10F
WASKISH        SUNNY     75  54  46 S9        30.08F
BIG FORK       SUNNY     75  50  41 SW15G23   30.13S
LONGVILLE      MOSUNNY   72  52  49 S9G16     30.12F
GRAND RAPIDS   SUNNY     72  48  43 S17G23    30.14F
CRANE LAKE     SUNNY     73  48  40 S7        30.13F
ORR            SUNNY     75  45  33 S10G17    30.11F
COOK           SUNNY     73  50  43 S9        30.15S
WALKER         FAIR      71  50  47 S8        30.10F
$$
MNZ012-019>021-037-232100-
   Northeast Minnesota

CITY           SKY/WX    TMP DP  RH WIND       PRES   REMARKS
DULUTH         SUNNY     73  49  42 SW15      30.17F
ELY            SUNNY     73  46  38 S7        30.15F
HIBBING        SUNNY     74  48  39 SW8G17    30.15F
EVELETH        SUNNY     72  48  43 SW14G22   30.17S
DULUTH HARBOR  SUNNY     75  54  46 S9        30.17F
TWO HARBORS    SUNNY     72  54  53 SW12G18   30.16F
SILVER BAY     SUNNY     70  55  60 S16       30.17F
GRAND MARAIS     N/A     56  52  86 W7        30.19S
G MARAIS ARPRT SUNNY     66  46  48 S7        30.22S
$$
MNZ029>031-032-039>041-046>048-054>057-064-232100-
   West Central Minnesota

CITY           SKY/WX    TMP DP  RH WIND       PRES   REMARKS
FERGUS FALLS   MOSUNNY   66  46  48 S16G25    30.09S
WHEATON        DRIZZLE   57  52  82 SE15G22   30.10S
MORRIS         CLOUDY    63  52  67 S10G21    30.10F
ALEXANDRIA     PTSUNNY   66  53  63 S16       30.13F
ELBOW LAKE     FAIR      64  50  61 S17G26    30.11S
WADENA         MOSUNNY   72  52  49 S15G22    30.10F
GLENWOOD       CLOUDY    66  55  68 S10       30.13F
APPLETON       CLOUDY    63  54  72 SE8       30.09F
BENSON         CLOUDY    64  48  55 S8        30.11F
ORTONVILLE     LGT RAIN  57  54  88 SE8       30.08F
MADISON        CLOUDY    63  55  77 SE14      30.09F
WILLMAR        FAIR      70  52  52 S8        30.13F
$$
MNZ033>034-036-042>043-049>051-058-059-232100-
   Central Minnesota

CITY           SKY/WX    TMP DP  RH WIND       PRES   REMARKS
ST CLOUD       MOSUNNY   74  52  46 S14       30.14F
SAUK CENTRE    FAIR      69  54  57 S8        30.13F
PAYNESVILLE    PTSUNNY   68  53  57 E8        30.13F
AITKIN         MOSUNNY   75  52  43 S13G18    30.13F
PINE RIVER     PTSUNNY   73  54  49 S12G18    30.15F
BRAINERD       PTSUNNY   73  51  46 S16       30.13F
STAPLES        MOSUNNY   72  50  46 S15       30.12F
LONG PRAIRIE   FAIR      70  52  52 SE15G23   30.13F
LITTLE FALLS   MOSUNNY   72  48  43 S14       30.14S
LITCHFIELD     PTSUNNY   72  54  53 S6        30.14F
BUFFALO        PTSUNNY   72  51  47 SE9       30.16F
MAPLE LAKE     PTSUNNY   73  54  52 S8        30.16F
$$
MNZ037-044-045-052-053-232100-
   East Central Minnesota

CITY           SKY/WX    TMP DP  RH WIND       PRES   REMARKS
PRINCETON      MOSUNNY   73  54  49 S13G20    30.17S
MORA           MOSUNNY   70  48  46 S13G18    30.18F
CAMBRIDGE      MOSUNNY   75  55  50 S10G18    30.15F
RUSH CITY      MOSUNNY   73  52  48 S6G16     30.18F
MOOSE LAKE     MOSUNNY   72  50  46 S9G16     30.16S
HINCKLEY       FAIR      72  52  49 S13       30.18S
CLOQUET        SUNNY     72  46  40 S10       30.17F
MCGREGOR       MOSUNNY   72  50  46 S12       30.16F
$$
MNZ071>073-080-081-089-090-097-098-232100-
   Southwest Minnesota

CITY           SKY/WX    TMP DP  RH WIND       PRES   REMARKS
MONTEVIDEO     CLOUDY    66  52  59 S10       30.11F
GRANITE FALLS  CLOUDY    68  54  61 SE13G20   30.13F
CANBY          CLOUDY    60  57  91 SE9       30.10F
MARSHALL       CLOUDY    63  55  77 S16G23    30.10F
REDWOOD FALLS  CLOUDY    69  52  54 S16       30.11F
OLIVIA         CLOUDY    70  52  52 SE14G21   30.12F
PIPESTONE      RAIN      61  55  82 S13G20    30.09F
WINDOM         CLOUDY    66  52  59 SE14G20   30.14F
WORTHINGTON    CLOUDY    61  55  82 S13G23    30.14F
JACKSON        LGT RAIN  64  52  63 S15G24    30.15F
TRACY          LGT RAIN  64  56  75 S12G17    30.12F
SLAYTON        CLOUDY    62  56  79 S16G25    30.13S
$$
MNZ065>067-074>077-082>085-091>093-232100-
   South Central Minnesota

CITY           SKY/WX    TMP DP  RH WIND       PRES   REMARKS
MANKATO        PTSUNNY   72  48  43 S14       30.15F
NEW ULM        PTSUNNY   72  54  53 S12G21    30.13F
ST JAMES       PTSUNNY   73  48  40 SE13G22   30.15S
FAIRMONT       PTSUNNY   70  48  46 S16G23    30.15F
GLENCOE        PTSUNNY   74  46  36 S8        30.14F
FARIBAULT      MOSUNNY   75  45  33 S10       30.18F
OWATONNA       MOSUNNY   73  48  40 S12       30.18F
WASECA         MOSUNNY   72  45  37 S9        30.19F
ALBERT LEA     PTSUNNY   72  48  43 S13G21    30.19F
$$
MNZ078>079-086>088-094>096-232100-
   Southeast Minnesota

CITY           SKY/WX    TMP DP  RH WIND       PRES   REMARKS
ROCHESTER      PTSUNNY   71  52  50 S12G18    30.22F
RED WING       MOSUNNY   73  48  40 S7        30.18F
STANTON        PTSUNNY   73  50  43 S9        30.17F
DODGE CENTER   PTSUNNY   72  52  49 S10G17    30.20F
WINONA         MOSUNNY   73  52  46 S6        30.22F
AUSTIN         MOSUNNY   72  50  46 S15G21    30.20F
PRESTON        PTSUNNY   70  56  61 S6        30.23F
$$
ABBREVIATIONS USED IN REMARKS
   TC - TEMPERATURES IN CELSIUS
  WCI - WIND CHILL INDEX
   HX - HEAT INDEX
  VSB - VISIBILITY
$$



USA.gov is the U.S. government's official web portal to all federal, state and local government web resources and services.